Вернуться в каталог

TJS-7

АктивенСвязьGEO
NORAD 49115·PAYLOAD·🇨🇳 China

Запущен Aug 24, 2021 с Xichang Satellite Launch Center

Loading…

TLE

СвежийSource: Space-Track

Эпоха: Sep 14, 2026, 15:02 UTC

1 49115U 21077A   26257.62675458 -.00000132  00000-0  00000-0 0  9999
2 49115   0.1323 261.0249 0001831 102.7869 115.9128  1.00273561 10442

Отслеживайте TJS-7 в реальном времени с AllMySat

Download on the App Store